Location: Newark
(33.6333°S, 78.8500°W)
Time: 03:30:39
(UTC+00:00)

Explorer 7 - All Passes

Search period start: 15 October 2019 00:00
Search period end: 25 October 2019 00:00
Orbit: 485 x 680 km, 50.3° (Epoch: 14 October)

Date Brightness Start Highest point End Pass type
(mag) Time Alt. Az. Time Alt. Az. Time Alt. Az.
15 Oct - 04:00:30 10° NNE 04:02:40 13° NE 04:04:51 10° E night (unlit)
15 Oct - 05:37:47 10° NW 05:42:44 89° NE 05:47:40 10° SE visible
15 Oct - 07:20:05 10° WSW 07:23:52 22° SSW 07:27:37 10° SSE visible
15 Oct - 09:05:09 10° SSW 09:06:01 10° S 09:06:54 10° S visible
15 Oct - 10:46:06 10° SSW 10:48:25 13° SSE 10:50:41 10° SE daylight
15 Oct - 12:25:42 10° SW 12:30:03 43° SE 12:34:06 10° ENE daylight
15 Oct - 14:06:51 10° WSW 14:10:23 24° NW 14:13:42 10° N daylight
16 Oct - 04:03:38 10° N 04:07:25 22° NE 04:11:14 10° ESE night (unlit)
16 Oct - 05:42:54 10° WNW 05:47:46 58° SW 05:52:37 10° SE visible
16 Oct - 07:26:04 10° WSW 07:29:13 17° SSW 07:32:19 10° SSE visible
16 Oct - 09:11:04 10° S 09:11:33 10° S 09:12:01 10° S visible
16 Oct - 10:50:44 10° SSW 10:53:49 17° SSE 10:56:48 10° ESE daylight
16 Oct - 12:30:35 10° SW 12:35:08 71° SE 12:39:20 10° NE daylight
16 Oct - 14:13:01 10° W 14:15:07 13° NW 14:17:08 10° NNW daylight
17 Oct - 04:07:43 10° NNW 04:12:13 38° NE 04:16:47 10° ESE night (unlit)
17 Oct - 05:48:16 10° WNW 05:52:53 38° SSW 05:57:28 10° SE visible
17 Oct - 07:32:12 10° SW 07:34:38 13° SSW 07:37:01 10° SSE visible
17 Oct - 09:15:53 10° S 09:17:03 11° S 09:18:12 10° SSE visible
17 Oct - 10:55:24 10° SSW 10:59:09 23° SSE 11:02:42 10° E daylight
17 Oct - 12:35:36 10° SW 12:40:06 66° NW 12:44:17 10° NE daylight
18 Oct - 04:12:16 10° NW 04:17:07 64° NE 04:22:02 10° SE night (unlit)
18 Oct - 05:53:53 10° W 05:58:04 27° SSW 06:02:15 10° SSE visible
18 Oct - 07:38:25 10° SSW 07:40:05 11° S 07:41:44 10° S visible
18 Oct - 09:20:33 10° SSW 09:22:33 12° SSE 09:24:30 10° SE visible
18 Oct - 11:00:08 10° SSW 11:04:23 33° SSE 11:08:22 10° E daylight
18 Oct - 12:40:50 10° WSW 12:44:59 37° NW 12:48:52 10° NNE daylight
19 Oct - 02:39:09 10° NNE 02:41:57 15° NE 02:44:49 10° E night (unlit)
19 Oct - 04:17:10 10° NW 04:22:04 79° SW 04:27:04 10° SE night (unlit)
19 Oct - 05:59:43 10° WSW 06:03:21 20° SSW 06:06:58 10° SSE visible
19 Oct - 07:44:31 10° SSW 07:45:36 11° S 07:46:39 10° S visible
19 Oct - 09:25:12 10° SSW 09:27:59 15° SSE 09:30:41 10° SE visible
19 Oct - 11:04:58 10° SW 11:09:32 51° SE 11:13:47 10° ENE daylight
19 Oct - 12:46:25 10° WSW 12:49:46 21° NW 12:52:57 10° N daylight
20 Oct - 02:42:42 10° N 02:46:42 26° NE 02:50:48 10° ESE night (unlit)
20 Oct - 04:22:22 10° WNW 04:27:08 50° SW 04:31:58 10° SE night (unlit)
20 Oct - 06:05:44 10° SW 06:08:43 16° SSW 06:11:41 10° SSE visible
20 Oct - 07:50:01 10° S 07:51:07 11° S 07:52:12 10° SSE visible
20 Oct - 09:29:53 10° SSW 09:33:21 19° SSE 09:36:41 10° ESE visible
20 Oct - 11:09:52 10° SW 11:14:34 85° SE 11:18:56 10° NE daylight
20 Oct - 12:53:02 10° WNW 12:54:29 11° WNW 12:55:53 10° NW daylight
21 Oct - 02:46:57 10° NNW 02:51:32 44° NE 02:56:14 10° ESE night (unlit)
21 Oct - 04:27:48 10° W 04:32:16 34° SSW 04:36:47 10° SSE night (unlit)
21 Oct - 06:11:52 10° SW 06:14:08 13° SSW 06:16:25 10° SSE visible
21 Oct - 07:54:55 10° SSW 07:56:37 12° S 07:58:17 10° SSE visible
21 Oct - 09:34:35 10° SSW 09:38:39 26° SSE 09:42:30 10° E visible
21 Oct - 11:14:57 10° WSW 11:19:31 56° NW 11:23:46 10° NNE daylight
22 Oct - 02:51:37 10° NW 02:56:26 75° NE 03:01:24 10° SE night (unlit)
22 Oct - 04:33:29 10° W 04:37:30 24° SSW 04:41:33 10° SSE night (unlit)
22 Oct - 06:18:02 10° SSW 06:19:38 11° S 06:21:13 10° SSE visible
22 Oct - 07:59:39 10° SSW 08:02:05 14° SSE 08:04:29 10° SE visible
22 Oct - 09:39:21 10° SW 09:43:50 38° SSE 09:48:05 10° ENE visible
22 Oct - 11:20:15 10° WSW 11:24:22 31° NW 11:28:13 10° NNE daylight
23 Oct - 01:18:02 10° NNE 01:21:13 18° NE 01:24:31 10° E night (unlit)
23 Oct - 02:56:36 10° WNW 03:01:26 68° SW 03:06:23 10° SE night (unlit)
23 Oct - 04:39:23 10° WSW 04:42:49 18° SSW 04:46:16 10° SSE visible
23 Oct - 06:23:54 10° SSW 06:25:08 11° S 06:26:21 10° SSE visible
23 Oct - 08:04:20 10° SSW 08:07:30 17° SSE 08:10:34 10° ESE visible
23 Oct - 09:44:12 10° SW 09:48:58 61° SE 09:53:24 10° ENE visible
23 Oct - 11:25:59 10° W 11:29:07 18° NW 11:32:06 10° N daylight
24 Oct - 01:21:51 10° N 01:26:00 31° NE 01:30:18 10° ESE visible
24 Oct - 03:01:53 10° WNW 03:06:30 43° SW 03:11:15 10° SE night (unlit)
24 Oct - 04:45:26 10° SW 04:48:12 15° SSW 04:50:59 10° SSE visible
24 Oct - 06:29:12 10° SSW 06:30:39 11° S 06:32:06 10° SSE visible
24 Oct - 08:09:02 10° SSW 08:12:50 22° SSE 08:16:30 10° ESE visible
24 Oct - 09:49:09 10° SW 09:53:58 82° NW 09:58:27 10° NE visible
